Time,TemperatureF,DewpointF,PressureIn,WindDirection,WindDirectionDegrees,WindSpeedMPH,WindSpeedGustMPH,Humidity,HourlyPrecipIn,Conditions,Clouds,dailyrainin,SoftwareType,DateUTC
2013-04-03 00:00:00,39.8,31.9,30.09,NE,34,0.0,0.0,73,0.00,,,0.00,LWC V2.00 B2112,2013-04-03 04:00:00,
2013-04-03 00:01:00,39.8,31.9,30.09,NE,34,0.0,0.0,73,0.00,,,0.00,LWC V2.00 B2112,2013-04-03 04:01:00,
2013-04-03 00:06:00,39.8,31.9,30.10,NE,34,0.0,0.0,73,0.00,,,0.00,LWC V2.00 B2112,2013-04-03 04:06:00,
2013-04-03 00:11:00,39.8,31.9,30.10,NE,34,0.0,0.0,73,0.00,,,0.00,LWC V2.00 B2112,2013-04-03 04:11:00,
2013-04-03 00:16:00,39.6,31.7,30.10,NE,34,0.0,0.0,73,0.00,,,0.00,LWC V2.00 B2112,2013-04-03 04:16:00,
2013-04-03 00:21:00,39.6,31.3,30.10,NE,34,0.0,0.0,72,0.00,,,0.00,LWC V2.00 B2112,2013-04-03 04:21:00,
2013-04-03 00:26:00,39.5,31.6,30.10,NE,34,0.0,0.0,73,0.00,,,0.00,LWC V2.00 B2112,2013-04-03 04:26:00,
2013-04-03 00:31:00,39.5,31.9,30.10,NE,34,0.0,0.0,74,0.00,,,0.00,LWC V2.00 B2112,2013-04-03 04:31:00,
2013-04-03 00:36:00,39.5,31.9,30.11,NE,34,0.0,0.0,74,0.00,,,0.00,LWC V2.00 B2112,2013-04-03 04:36:00,
2013-04-03 00:41:00,39.3,32.0,30.11,NE,34,0.0,0.0,75,0.00,,,0.00,LWC V2.00 B2112,2013-04-03 04:41:00,
2013-04-03 00:46:00,39.3,31.7,30.11,NE,34,0.0,0.0,74,0.00,,,0.00,LWC V2.00 B2112,2013-04-03 04:46:00,
2013-04-03 00:51:00,39.3,31.7,30.11,NE,34,0.0,0.0,74,0.00,,,0.00,LWC V2.00 B2112,2013-04-03 04:51:00,
2013-04-03 00:56:00,39.3,31.4,30.11,NE,34,0.0,0.0,73,0.00,,,0.00,LWC V2.00 B2112,2013-04-03 04:56:00,
2013-04-03 01:01:00,39.3,31.4,30.11,NE,34,0.0,0.0,73,0.00,,,0.00,LWC V2.00 B2112,2013-04-03 05:01:00,
2013-04-03 01:06:00,39.5,31.6,30.12,NE,34,0.0,0.0,73,0.00,,,0.00,LWC V2.00 B2112,2013-04-03 05:06:00,
2013-04-03 01:11:00,39.5,31.9,30.12,NE,34,0.0,0.0,74,0.00,,,0.00,LWC V2.00 B2112,2013-04-03 05:11:00,
2013-04-03 01:16:00,39.5,31.6,30.12,NE,34,0.0,0.0,73,0.00,,,0.00,LWC V2.00 B2112,2013-04-03 05:16:00,
2013-04-03 01:21:00,39.5,31.6,30.13,NE,34,0.0,0.0,73,0.00,,,0.00,LWC V2.00 B2112,2013-04-03 05:21:00,
2013-04-03 01:26:00,39.5,31.6,30.13,NE,34,0.0,0.0,73,0.00,,,0.00,LWC V2.00 B2112,2013-04-03 05:26:00,
2013-04-03 01:31:00,39.6,31.3,30.13,NE,34,0.0,0.0,72,0.00,,,0.00,LWC V2.00 B2112,2013-04-03 05:31:00,
2013-04-03 01:36:00,39.6,31.7,30.13,NE,34,0.0,0.0,73,0.00,,,0.00,LWC V2.00 B2112,2013-04-03 05:36:00,
2013-04-03 01:41:00,39.8,32.2,30.13,NE,34,0.0,0.0,74,0.00,,,0.00,LWC V2.00 B2112,2013-04-03 05:41:00,
2013-04-03 01:46:00,39.8,31.9,30.13,NE,34,0.0,0.0,73,0.00,,,0.00,LWC V2.00 B2112,2013-04-03 05:46:00,
2013-04-03 01:51:00,39.8,31.9,30.14,NE,34,0.0,0.0,73,0.00,,,0.00,LWC V2.00 B2112,2013-04-03 05:51:00,
2013-04-03 01:56:00,39.8,32.5,30.14,NE,34,0.0,0.0,75,0.00,,,0.00,LWC V2.00 B2112,2013-04-03 05:56:00,
2013-04-03 02:01:00,39.8,31.9,30.14,NE,34,0.0,0.0,73,0.00,,,0.00,LWC V2.00 B2112,2013-04-03 06:01:00,
2013-04-03 02:06:00,39.8,32.2,30.14,NE,34,0.0,0.0,74,0.00,,,0.00,LWC V2.00 B2112,2013-04-03 06:06:00,
2013-04-03 02:11:00,39.8,32.2,30.14,NE,34,0.0,0.0,74,0.00,,,0.00,LWC V2.00 B2112,2013-04-03 06:11:00,
2013-04-03 02:16:00,39.8,31.9,30.14,NE,34,0.0,0.0,73,0.00,,,0.00,LWC V2.00 B2112,2013-04-03 06:16:00,
2013-04-03 02:21:00,39.9,32.0,30.15,NE,34,0.0,0.0,73,0.00,,,0.00,LWC V2.00 B2112,2013-04-03 06:21:00,
2013-04-03 02:26:00,39.9,32.0,30.15,NE,34,0.0,0.0,73,0.00,,,0.00,LWC V2.00 B2112,2013-04-03 06:26:00,
2013-04-03 02:31:00,40.1,32.5,30.15,NE,34,0.0,0.0,74,0.00,,,0.00,LWC V2.00 B2112,2013-04-03 06:31:00,
2013-04-03 02:36:00,40.2,32.2,30.15,NE,34,0.0,0.0,73,0.00,,,0.00,LWC V2.00 B2112,2013-04-03 06:36:00,
2013-04-03 02:41:00,40.2,31.9,30.15,NE,34,0.0,0.0,72,0.00,,,0.00,LWC V2.00 B2112,2013-04-03 06:41:00,
2013-04-03 02:46:00,40.3,32.0,30.15,NE,34,0.0,0.0,72,0.00,,,0.00,LWC V2.00 B2112,2013-04-03 06:46:00,
2013-04-03 02:51:00,40.5,32.2,30.15,NE,34,0.0,0.0,72,0.00,,,0.00,LWC V2.00 B2112,2013-04-03 06:51:00,
2013-04-03 02:56:00,40.5,32.5,30.15,NE,34,0.0,0.0,73,0.00,,,0.00,LWC V2.00 B2112,2013-04-03 06:56:00,
2013-04-03 03:01:00,40.6,31.9,30.15,NE,34,0.0,0.0,71,0.00,,,0.00,LWC V2.00 B2112,2013-04-03 07:01:00,
2013-04-03 03:06:00,40.8,32.1,30.16,NE,34,0.0,0.0,71,0.00,,,0.00,LWC V2.00 B2112,2013-04-03 07:06:00,
2013-04-03 03:11:00,40.9,30.4,30.16,NE,34,0.0,0.0,66,0.00,,,0.00,LWC V2.00 B2112,2013-04-03 07:11:00,
2013-04-03 03:16:00,41.1,30.6,30.16,NE,34,0.0,0.0,66,0.00,,,0.00,LWC V2.00 B2112,2013-04-03 07:16:00,
2013-04-03 03:21:00,41.1,29.5,30.15,NE,34,0.0,0.0,63,0.00,,,0.00,LWC V2.00 B2112,2013-04-03 07:21:00,
2013-04-03 03:26:00,41.2,29.2,30.15,NE,34,0.0,0.0,62,0.00,,,0.00,LWC V2.00 B2112,2013-04-03 07:26:00,
2013-04-03 03:31:00,41.3,28.1,30.15,NE,34,0.0,0.0,59,0.00,,,0.00,LWC V2.00 B2112,2013-04-03 07:31:00,
2013-04-03 03:36:00,41.3,27.2,30.15,NE,34,0.0,0.0,57,0.00,,,0.00,LWC V2.00 B2112,2013-04-03 07:36:00,
2013-04-03 03:41:00,41.5,27.8,30.15,NE,34,0.0,0.0,58,0.00,,,0.00,LWC V2.00 B2112,2013-04-03 07:41:00,
2013-04-03 03:46:00,41.6,28.3,30.15,NE,34,0.0,0.0,59,0.00,,,0.00,LWC V2.00 B2112,2013-04-03 07:46:00,
2013-04-03 03:51:00,41.6,27.9,30.15,NE,34,0.0,0.0,58,0.00,,,0.00,LWC V2.00 B2112,2013-04-03 07:51:00,
2013-04-03 03:56:00,41.8,26.8,30.15,NE,34,0.0,0.0,55,0.00,,,0.00,LWC V2.00 B2112,2013-04-03 07:56:00,
2013-04-03 04:01:00,41.8,26.4,30.15,NE,34,0.0,0.0,54,0.00,,,0.00,LWC V2.00 B2112,2013-04-03 08:01:00,
2013-04-03 04:06:00,41.8,25.0,30.15,NE,34,0.0,0.0,51,0.00,,,0.00,LWC V2.00 B2112,2013-04-03 08:06:00,
2013-04-03 04:11:00,41.8,24.5,30.15,NE,34,0.0,0.0,50,0.00,,,0.00,LWC V2.00 B2112,2013-04-03 08:11:00,
2013-04-03 04:16:00,41.8,23.6,30.15,NE,34,0.0,0.0,48,0.00,,,0.00,LWC V2.00 B2112,2013-04-03 08:16:00,
2013-04-03 04:21:00,41.8,24.1,30.15,NE,34,0.0,0.0,49,0.00,,,0.00,LWC V2.00 B2112,2013-04-03 08:21:00,
2013-04-03 04:26:00,41.8,24.1,30.15,NE,34,0.0,0.0,49,0.00,,,0.00,LWC V2.00 B2112,2013-04-03 08:26:00,
2013-04-03 04:31:00,41.8,22.6,30.15,NE,34,0.0,0.0,46,0.00,,,0.00,LWC V2.00 B2112,2013-04-03 08:31:00,
2013-04-03 04:36:00,41.8,24.1,30.15,NE,34,0.0,0.0,49,0.00,,,0.00,LWC V2.00 B2112,2013-04-03 08:36:00,
2013-04-03 04:41:00,41.6,23.4,30.15,NE,34,0.0,0.0,48,0.00,,,0.00,LWC V2.00 B2112,2013-04-03 08:41:00,
2013-04-03 04:46:00,41.6,23.9,30.15,NE,34,0.0,0.0,49,0.00,,,0.00,LWC V2.00 B2112,2013-04-03 08:46:00,
2013-04-03 04:51:00,41.5,24.3,30.16,NE,34,0.0,0.0,50,0.00,,,0.00,LWC V2.00 B2112,2013-04-03 08:51:00,
2013-04-03 04:56:00,41.3,23.1,30.16,NE,34,0.0,0.0,48,0.00,,,0.00,LWC V2.00 B2112,2013-04-03 08:56:00,
2013-04-03 05:01:00,41.2,24.0,30.16,NE,34,0.0,0.0,50,0.00,,,0.00,LWC V2.00 B2112,2013-04-03 09:01:00,
2013-04-03 05:06:00,40.9,24.2,30.16,NE,34,0.0,0.0,51,0.00,,,0.00,LWC V2.00 B2112,2013-04-03 09:06:00,
2013-04-03 05:11:00,40.6,23.9,30.16,NE,34,0.0,0.0,51,0.00,,,0.00,LWC V2.00 B2112,2013-04-03 09:11:00,
2013-04-03 05:16:00,40.5,23.8,30.16,NE,34,0.0,0.0,51,0.00,,,0.00,LWC V2.00 B2112,2013-04-03 09:16:00,
2013-04-03 05:21:00,40.2,23.5,30.16,NE,34,0.0,0.0,51,0.00,,,0.00,LWC V2.00 B2112,2013-04-03 09:21:00,
2013-04-03 05:26:00,39.9,23.7,30.16,NE,34,0.0,0.0,52,0.00,,,0.00,LWC V2.00 B2112,2013-04-03 09:26:00,
2013-04-03 05:31:00,39.6,24.3,30.16,NE,34,0.0,0.0,54,0.00,,,0.00,LWC V2.00 B2112,2013-04-03 09:31:00,
2013-04-03 05:36:00,39.5,25.5,30.16,NE,34,0.0,0.0,57,0.00,,,0.00,LWC V2.00 B2112,2013-04-03 09:36:00,
2013-04-03 05:41:00,39.3,24.9,30.16,NE,34,0.0,0.0,56,0.00,,,0.00,LWC V2.00 B2112,2013-04-03 09:41:00,
2013-04-03 05:46:00,39.1,24.7,30.16,NE,34,0.0,0.0,56,0.00,,,0.00,LWC V2.00 B2112,2013-04-03 09:46:00,
2013-04-03 05:51:00,38.9,25.4,30.17,NE,34,0.0,0.0,58,0.00,,,0.00,LWC V2.00 B2112,2013-04-03 09:51:00,
2013-04-03 05:56:00,38.8,25.3,30.17,NE,34,0.0,0.0,58,0.00,,,0.00,LWC V2.00 B2112,2013-04-03 09:56:00,
2013-04-03 06:01:00,38.6,26.3,30.17,NE,34,0.0,0.0,61,0.00,,,0.00,LWC V2.00 B2112,2013-04-03 10:01:00,
2013-04-03 06:06:00,38.5,25.4,30.17,NE,34,0.0,0.0,59,0.00,,,0.00,LWC V2.00 B2112,2013-04-03 10:06:00,
2013-04-03 06:11:00,38.5,25.8,30.17,NE,34,0.0,0.0,60,0.00,,,0.00,LWC V2.00 B2112,2013-04-03 10:11:00,
2013-04-03 06:16:00,38.3,25.6,30.17,NE,34,0.0,0.0,60,0.00,,,0.00,LWC V2.00 B2112,2013-04-03 10:16:00,
2013-04-03 06:21:00,38.3,26.4,30.17,NE,34,0.0,0.0,62,0.00,,,0.00,LWC V2.00 B2112,2013-04-03 10:21:00,
2013-04-03 06:26:00,38.2,25.6,30.17,NE,34,0.0,0.0,60,0.00,,,0.00,LWC V2.00 B2112,2013-04-03 10:26:00,
2013-04-03 06:31:00,38.2,25.6,30.17,NE,34,0.0,0.0,60,0.00,,,0.00,LWC V2.00 B2112,2013-04-03 10:31:00,
2013-04-03 06:36:00,38.2,25.2,30.17,NE,34,0.0,0.0,59,0.00,,,0.00,LWC V2.00 B2112,2013-04-03 10:36:00,
2013-04-03 06:41:00,38.2,26.7,30.17,NE,34,0.0,0.0,63,0.00,,,0.00,LWC V2.00 B2112,2013-04-03 10:41:00,
2013-04-03 06:47:00,38.2,25.2,30.17,NE,34,0.0,0.0,59,0.00,,,0.00,LWC V2.00 B2112,2013-04-03 10:47:00,
2013-04-03 06:52:00,38.2,26.3,30.16,NE,34,0.0,0.0,62,0.00,,,0.00,LWC V2.00 B2112,2013-04-03 10:52:00,
2013-04-03 06:57:00,38.0,25.8,30.16,NE,34,0.0,0.0,61,0.00,,,0.00,LWC V2.00 B2112,2013-04-03 10:57:00,
2013-04-03 07:02:00,38.0,26.5,30.16,NE,34,0.0,0.0,63,0.00,,,0.00,LWC V2.00 B2112,2013-04-03 11:02:00,
2013-04-03 07:07:00,38.0,26.2,30.18,NE,34,0.0,0.0,62,0.00,,,0.00,LWC V2.00 B2112,2013-04-03 11:07:00,
2013-04-03 07:12:00,38.0,25.4,30.18,NE,34,0.0,0.0,60,0.00,,,0.00,LWC V2.00 B2112,2013-04-03 11:12:00,
2013-04-03 07:17:00,38.2,24.7,30.18,NE,34,0.0,0.0,58,0.00,,,0.00,LWC V2.00 B2112,2013-04-03 11:17:00,
2013-04-03 07:22:00,38.3,27.2,30.18,NE,34,0.0,0.0,64,0.00,,,0.00,LWC V2.00 B2112,2013-04-03 11:22:00,
2013-04-03 07:27:00,38.3,26.0,30.18,NE,34,0.0,0.0,61,0.00,,,0.00,LWC V2.00 B2112,2013-04-03 11:27:00,
2013-04-03 07:32:00,38.6,28.6,30.18,NE,34,0.0,0.0,67,0.00,,,0.00,LWC V2.00 B2112,2013-04-03 11:32:00,
2013-04-03 07:37:00,38.8,28.8,30.19,NE,34,0.0,0.0,67,0.00,,,0.00,LWC V2.00 B2112,2013-04-03 11:37:00,
2013-04-03 07:42:00,38.9,26.2,30.19,NE,34,0.0,0.0,60,0.00,,,0.00,LWC V2.00 B2112,2013-04-03 11:42:00,
2013-04-03 07:47:00,39.2,26.1,30.19,NNE,32,0.0,0.0,59,0.00,,,0.00,LWC V2.00 B2112,2013-04-03 11:47:00,
2013-04-03 07:52:00,39.3,24.9,30.21,NNE,32,0.0,0.0,56,0.00,,,0.00,LWC V2.00 B2112,2013-04-03 11:52:00,
2013-04-03 07:57:00,39.8,25.0,30.21,NNE,32,0.0,0.0,55,0.00,,,0.00,LWC V2.00 B2112,2013-04-03 11:57:00,
2013-04-03 08:02:00,40.1,24.4,30.21,NNE,32,0.0,0.0,53,0.00,,,0.00,LWC V2.00 B2112,2013-04-03 12:02:00,
2013-04-03 08:07:00,40.3,25.4,30.24,NNE,32,0.0,0.0,55,0.00,,,0.00,LWC V2.00 B2112,2013-04-03 12:07:00,
2013-04-03 08:12:00,40.6,23.9,30.24,NNE,32,0.0,1.0,51,0.00,,,0.00,LWC V2.00 B2112,2013-04-03 12:12:00,
2013-04-03 08:17:00,40.9,23.7,30.24,NNE,32,0.0,0.0,50,0.00,,,0.00,LWC V2.00 B2112,2013-04-03 12:17:00,
2013-04-03 08:22:00,41.1,23.9,30.23,NNE,32,0.0,0.0,50,0.00,,,0.00,LWC V2.00 B2112,2013-04-03 12:22:00,
2013-04-03 08:27:00,41.2,24.0,30.23,NNE,32,0.0,0.0,50,0.00,,,0.00,LWC V2.00 B2112,2013-04-03 12:27:00,
2013-04-03 08:32:00,41.5,23.8,30.23,NNE,32,0.0,0.0,49,0.00,,,0.00,LWC V2.00 B2112,2013-04-03 12:32:00,
2013-04-03 08:37:00,42.1,26.2,30.23,NNE,32,0.0,0.0,53,0.00,,,0.00,LWC V2.00 B2112,2013-04-03 12:37:00,
2013-04-03 08:42:00,42.5,23.2,30.23,NW,313,0.0,0.0,46,0.00,,,0.00,LWC V2.00 B2112,2013-04-03 12:42:00,
2013-04-03 08:47:00,43.1,23.2,30.23,NNW,331,1.0,1.0,45,0.00,,,0.00,LWC V2.00 B2112,2013-04-03 12:47:00,
2013-04-03 08:52:00,43.5,23.6,30.23,NNW,331,0.0,0.0,45,0.00,,,0.00,LWC V2.00 B2112,2013-04-03 12:52:00,
2013-04-03 08:57:00,44.2,22.6,30.23,NNW,331,0.0,1.0,42,0.00,,,0.00,LWC V2.00 B2112,2013-04-03 12:57:00,
2013-04-03 09:02:00,44.8,23.7,30.23,ENE,76,2.0,2.0,43,0.00,,,0.00,LWC V2.00 B2112,2013-04-03 13:02:00,
2013-04-03 09:07:00,45.4,20.7,30.24,East,83,0.0,1.0,37,0.00,,,0.00,LWC V2.00 B2112,2013-04-03 13:07:00,
2013-04-03 09:12:00,46.2,25.0,30.24,East,83,0.0,0.0,43,0.00,,,0.00,LWC V2.00 B2112,2013-04-03 13:12:00,
2013-04-03 09:17:00,46.8,22.5,30.24,East,83,0.0,0.0,38,0.00,,,0.00,LWC V2.00 B2112,2013-04-03 13:17:00,
2013-04-03 09:22:00,47.6,22.0,30.24,East,83,0.0,0.0,36,0.00,,,0.00,LWC V2.00 B2112,2013-04-03 13:22:00,
2013-04-03 09:27:00,47.9,21.6,30.24,ENE,71,0.0,0.0,35,0.00,,,0.00,LWC V2.00 B2112,2013-04-03 13:27:00,
2013-04-03 09:32:00,48.2,19.7,30.24,ENE,71,0.0,0.0,32,0.00,,,0.00,LWC V2.00 B2112,2013-04-03 13:32:00,
2013-04-03 09:37:00,48.0,19.6,30.24,WSW,249,0.0,0.0,32,0.00,,,0.00,LWC V2.00 B2112,2013-04-03 13:37:00,
2013-04-03 09:42:00,48.2,19.0,30.24,WSW,244,1.0,1.0,31,0.00,,,0.00,LWC V2.00 B2112,2013-04-03 13:42:00,
2013-04-03 09:47:00,48.6,17.8,30.24,WSW,238,0.0,1.0,29,0.00,,,0.00,LWC V2.00 B2112,2013-04-03 13:47:00,
2013-04-03 09:52:00,49.1,19.8,30.24,ENE,64,0.0,0.0,31,0.00,,,0.00,LWC V2.00 B2112,2013-04-03 13:52:00,
2013-04-03 09:57:00,49.4,17.7,30.24,North,0,0.0,0.0,28,0.00,,,0.00,LWC V2.00 B2112,2013-04-03 13:57:00,
2013-04-03 10:02:00,49.5,17.8,30.24,WNW,292,0.0,1.0,28,0.00,,,0.00,LWC V2.00 B2112,2013-04-03 14:02:00,
2013-04-03 10:07:00,49.8,16.3,30.25,ESE,111,0.0,0.0,26,0.00,,,0.00,LWC V2.00 B2112,2013-04-03 14:07:00,
2013-04-03 10:12:00,50.2,17.5,30.25,East,97,0.0,2.0,27,0.00,,,0.00,LWC V2.00 B2112,2013-04-03 14:12:00,
2013-04-03 10:17:00,50.4,17.7,30.25,East,91,0.0,1.0,27,0.00,,,0.00,LWC V2.00 B2112,2013-04-03 14:17:00,
2013-04-03 10:22:00,50.5,16.9,30.25,ESE,104,0.0,1.0,26,0.00,,,0.00,LWC V2.00 B2112,2013-04-03 14:22:00,
2013-04-03 10:27:00,51.0,17.3,30.25,West,259,1.0,2.0,26,0.00,,,0.00,LWC V2.00 B2112,2013-04-03 14:27:00,
2013-04-03 10:32:00,51.0,17.3,30.25,ESE,109,0.0,2.0,26,0.00,,,0.00,LWC V2.00 B2112,2013-04-03 14:32:00,
2013-04-03 10:37:00,51.0,16.4,30.24,ESE,115,0.0,2.0,25,0.00,,,0.00,LWC V2.00 B2112,2013-04-03 14:37:00,
2013-04-03 10:42:00,51.3,16.7,30.24,East,100,0.0,0.0,25,0.00,,,0.00,LWC V2.00 B2112,2013-04-03 14:42:00,
2013-04-03 10:47:00,51.6,17.9,30.24,ENE,57,0.0,1.0,26,0.00,,,0.00,LWC V2.00 B2112,2013-04-03 14:47:00,
2013-04-03 10:52:00,52.0,18.2,30.24,WSW,242,0.0,0.0,26,0.00,,,0.00,LWC V2.00 B2112,2013-04-03 14:52:00,
2013-04-03 10:57:00,52.5,16.8,30.24,East,99,0.0,0.0,24,0.00,,,0.00,LWC V2.00 B2112,2013-04-03 14:57:00,
2013-04-03 11:02:00,52.8,18.9,30.24,NW,320,0.0,0.0,26,0.00,,,0.00,LWC V2.00 B2112,2013-04-03 15:02:00,
2013-04-03 11:07:00,53.5,18.6,30.24,NE,45,0.0,0.0,25,0.00,,,0.00,LWC V2.00 B2112,2013-04-03 15:07:00,
2013-04-03 11:12:00,54.1,20.0,30.24,NNW,342,0.0,1.0,26,0.00,,,0.00,LWC V2.00 B2112,2013-04-03 15:12:00,
2013-04-03 11:17:00,54.2,18.2,30.24,WSW,253,0.0,3.0,24,0.00,,,0.00,LWC V2.00 B2112,2013-04-03 15:17:00,
2013-04-03 11:22:00,53.9,18.9,30.23,SE,146,0.0,0.0,25,0.00,,,0.00,LWC V2.00 B2112,2013-04-03 15:22:00,
2013-04-03 11:27:00,53.8,17.9,30.23,West,260,0.0,1.0,24,0.00,,,0.00,LWC V2.00 B2112,2013-04-03 15:27:00,
2013-04-03 11:32:00,53.5,17.6,30.23,SSE,151,0.0,1.0,24,0.00,,,0.00,LWC V2.00 B2112,2013-04-03 15:32:00,
2013-04-03 11:37:00,53.2,18.3,30.23,SE,131,0.0,2.0,25,0.00,,,0.00,LWC V2.00 B2112,2013-04-03 15:37:00,
2013-04-03 11:42:00,53.6,17.7,30.23,North,0,0.0,2.0,24,0.00,,,0.00,LWC V2.00 B2112,2013-04-03 15:42:00,
2013-04-03 11:47:00,54.7,18.6,30.23,East,80,0.0,2.0,24,0.00,,,0.00,LWC V2.00 B2112,2013-04-03 15:47:00,
2013-04-03 11:52:00,54.5,17.5,30.23,East,80,1.0,1.0,23,0.00,,,0.00,LWC V2.00 B2112,2013-04-03 15:52:00,
2013-04-03 11:57:00,55.0,18.9,30.23,WNW,289,0.0,2.0,24,0.00,,,0.00,LWC V2.00 B2112,2013-04-03 15:57:00,
2013-04-03 12:02:00,55.3,17.1,30.23,North,0,0.0,2.0,22,0.00,,,0.00,LWC V2.00 B2112,2013-04-03 16:02:00,
2013-04-03 12:07:00,55.0,18.9,30.22,East,100,0.0,0.0,24,0.00,,,0.00,LWC V2.00 B2112,2013-04-03 16:07:00,
2013-04-03 12:12:00,55.4,16.1,30.22,NNE,24,1.0,1.0,21,0.00,,,0.00,LWC V2.00 B2112,2013-04-03 16:12:00,
2013-04-03 12:17:00,55.9,20.6,30.22,NNW,344,0.0,1.0,25,0.00,,,0.00,LWC V2.00 B2112,2013-04-03 16:17:00,
2013-04-03 12:22:00,56.3,18.0,30.21,WNW,289,0.0,2.0,22,0.00,,,0.00,LWC V2.00 B2112,2013-04-03 16:22:00,
2013-04-03 12:27:00,55.0,17.9,30.21,West,269,0.0,3.0,23,0.00,,,0.00,LWC V2.00 B2112,2013-04-03 16:27:00,
2013-04-03 12:32:00,55.9,17.6,30.21,ESE,108,0.0,2.0,22,0.00,,,0.00,LWC V2.00 B2112,2013-04-03 16:32:00,
2013-04-03 12:37:00,55.6,16.3,30.21,West,259,1.0,3.0,21,0.00,,,0.00,LWC V2.00 B2112,2013-04-03 16:37:00,
2013-04-03 12:42:00,55.1,17.0,30.21,West,265,0.0,3.0,22,0.00,,,0.00,LWC V2.00 B2112,2013-04-03 16:42:00,
2013-04-03 12:47:00,55.1,19.0,30.21,West,265,0.0,3.0,24,0.00,,,0.00,LWC V2.00 B2112,2013-04-03 16:47:00,
2013-04-03 12:52:00,57.0,18.5,30.20,NE,49,0.0,1.0,22,0.00,,,0.00,LWC V2.00 B2112,2013-04-03 16:52:00,
2013-04-03 12:57:00,58.0,19.4,30.20,ENE,71,0.0,2.0,22,0.00,,,0.00,LWC V2.00 B2112,2013-04-03 16:57:00,
2013-04-03 13:02:00,57.8,19.2,30.20,ENE,72,0.0,0.0,22,0.00,,,0.00,LWC V2.00 B2112,2013-04-03 17:02:00,
2013-04-03 13:07:00,57.6,19.0,30.19,WNW,298,0.0,0.0,22,0.00,,,0.00,LWC V2.00 B2112,2013-04-03 17:07:00,
2013-04-03 13:12:00,58.1,19.5,30.19,WNW,303,0.0,1.0,22,0.00,,,0.00,LWC V2.00 B2112,2013-04-03 17:12:00,
2013-04-03 13:17:00,58.7,17.7,30.19,ENE,67,0.0,0.0,20,0.00,,,0.00,LWC V2.00 B2112,2013-04-03 17:17:00,
2013-04-03 13:22:00,57.8,19.2,30.19,NW,321,0.0,2.0,22,0.00,,,0.00,LWC V2.00 B2112,2013-04-03 17:22:00,
2013-04-03 13:27:00,57.5,17.9,30.19,NW,319,0.0,3.0,21,0.00,,,0.00,LWC V2.00 B2112,2013-04-03 17:27:00,
2013-04-03 13:32:00,58.1,19.5,30.19,NW,315,1.0,1.0,22,0.00,,,0.00,LWC V2.00 B2112,2013-04-03 17:32:00,
2013-04-03 13:37:00,58.6,20.9,30.19,NW,313,0.0,2.0,23,0.00,,,0.00,LWC V2.00 B2112,2013-04-03 17:37:00,
2013-04-03 13:42:00,58.0,19.4,30.19,WNW,303,1.0,1.0,22,0.00,,,0.00,LWC V2.00 B2112,2013-04-03 17:42:00,
2013-04-03 13:47:00,57.2,18.7,30.19,West,275,2.0,2.0,22,0.00,,,0.00,LWC V2.00 B2112,2013-04-03 17:47:00,
2013-04-03 13:52:00,57.2,18.7,30.19,West,275,0.0,2.0,22,0.00,,,0.00,LWC V2.00 B2112,2013-04-03 17:52:00,
2013-04-03 13:57:00,57.3,17.7,30.19,West,275,0.0,2.0,21,0.00,,,0.00,LWC V2.00 B2112,2013-04-03 17:57:00,
2013-04-03 14:02:00,57.2,18.7,30.19,SSW,202,0.0,0.0,22,0.00,,,0.00,LWC V2.00 B2112,2013-04-03 18:02:00,
2013-04-03 14:07:00,57.5,19.0,30.18,NNE,15,0.0,3.0,22,0.00,,,0.00,LWC V2.00 B2112,2013-04-03 18:07:00,
2013-04-03 14:12:00,59.0,21.3,30.18,East,86,0.0,1.0,23,0.00,,,0.00,LWC V2.00 B2112,2013-04-03 18:12:00,
2013-04-03 14:17:00,59.0,18.0,30.18,East,89,0.0,4.0,20,0.00,,,0.00,LWC V2.00 B2112,2013-04-03 18:17:00,
2013-04-03 14:22:00,59.5,19.5,30.18,West,264,0.0,4.0,21,0.00,,,0.00,LWC V2.00 B2112,2013-04-03 18:22:00,
2013-04-03 14:27:00,59.0,19.1,30.18,WSW,252,2.0,2.0,21,0.00,,,0.00,LWC V2.00 B2112,2013-04-03 18:27:00,
2013-04-03 14:32:00,58.9,20.1,30.18,West,271,1.0,2.0,22,0.00,,,0.00,LWC V2.00 B2112,2013-04-03 18:32:00,
2013-04-03 14:37:00,58.9,20.1,30.18,West,271,1.0,1.0,22,0.00,,,0.00,LWC V2.00 B2112,2013-04-03 18:37:00,
2013-04-03 14:42:00,58.7,20.0,30.18,NW,321,0.0,1.0,22,0.00,,,0.00,LWC V2.00 B2112,2013-04-03 18:42:00,
2013-04-03 14:47:00,59.2,18.2,30.18,NW,321,0.0,1.0,20,0.00,,,0.00,LWC V2.00 B2112,2013-04-03 18:47:00,
2013-04-03 14:52:00,59.6,20.7,30.17,West,263,0.0,3.0,22,0.00,,,0.00,LWC V2.00 B2112,2013-04-03 18:52:00,
2013-04-03 14:57:00,59.2,19.3,30.17,West,264,0.0,0.0,21,0.00,,,0.00,LWC V2.00 B2112,2013-04-03 18:57:00,
2013-04-03 15:02:00,59.5,20.6,30.17,West,280,0.0,1.0,22,0.00,,,0.00,LWC V2.00 B2112,2013-04-03 19:02:00,
2013-04-03 15:07:00,59.5,18.4,30.16,NNE,33,1.0,1.0,20,0.00,,,0.00,LWC V2.00 B2112,2013-04-03 19:07:00,
2013-04-03 15:12:00,59.5,21.7,30.16,West,281,0.0,0.0,23,0.00,,,0.00,LWC V2.00 B2112,2013-04-03 19:12:00,
2013-04-03 15:17:00,59.8,18.7,30.16,West,280,0.0,1.0,20,0.00,,,0.00,LWC V2.00 B2112,2013-04-03 19:17:00,
2013-04-03 15:22:00,59.5,18.4,30.16,West,275,0.0,3.0,20,0.00,,,0.00,LWC V2.00 B2112,2013-04-03 19:22:00,
2013-04-03 15:27:00,59.6,18.5,30.16,West,275,0.0,1.0,20,0.00,,,0.00,LWC V2.00 B2112,2013-04-03 19:27:00,
2013-04-03 15:32:00,60.2,20.1,30.16,West,273,0.0,1.0,21,0.00,,,0.00,LWC V2.00 B2112,2013-04-03 19:32:00,
2013-04-03 15:37:00,59.8,19.8,30.16,SSW,199,1.0,1.0,21,0.00,,,0.00,LWC V2.00 B2112,2013-04-03 19:37:00,
2013-04-03 15:42:00,59.5,18.4,30.16,West,271,0.0,3.0,20,0.00,,,0.00,LWC V2.00 B2112,2013-04-03 19:42:00,
2013-04-03 15:47:00,59.3,18.2,30.16,West,270,1.0,2.0,20,0.00,,,0.00,LWC V2.00 B2112,2013-04-03 19:47:00,
2013-04-03 15:52:00,59.8,19.8,30.16,West,271,2.0,2.0,21,0.00,,,0.00,LWC V2.00 B2112,2013-04-03 19:52:00,
2013-04-03 15:57:00,60.5,22.5,30.16,ENE,72,0.0,2.0,23,0.00,,,0.00,LWC V2.00 B2112,2013-04-03 19:57:00,
2013-04-03 16:02:00,61.0,20.8,30.16,North,0,0.0,1.0,21,0.00,,,0.00,LWC V2.00 B2112,2013-04-03 20:02:00,
2013-04-03 16:07:00,60.5,18.0,30.16,NW,312,0.0,2.0,19,0.00,,,0.00,LWC V2.00 B2112,2013-04-03 20:07:00,
2013-04-03 16:12:00,60.5,18.0,30.16,North,0,0.0,6.0,19,0.00,,,0.00,LWC V2.00 B2112,2013-04-03 20:12:00,
2013-04-03 16:17:00,60.7,19.4,30.16,NNW,337,0.0,1.0,20,0.00,,,0.00,LWC V2.00 B2112,2013-04-03 20:17:00,
2013-04-03 16:22:00,60.7,19.4,30.16,ENE,63,0.0,2.0,20,0.00,,,0.00,LWC V2.00 B2112,2013-04-03 20:22:00,
2013-04-03 16:27:00,60.2,19.0,30.16,West,279,3.0,3.0,20,0.00,,,0.00,LWC V2.00 B2112,2013-04-03 20:27:00,
2013-04-03 16:32:00,59.9,21.0,30.16,West,279,0.0,1.0,22,0.00,,,0.00,LWC V2.00 B2112,2013-04-03 20:32:00,
2013-04-03 16:37:00,60.1,18.9,30.17,SSW,196,0.0,2.0,20,0.00,,,0.00,LWC V2.00 B2112,2013-04-03 20:37:00,
2013-04-03 16:42:00,60.1,17.7,30.17,NNW,333,0.0,1.0,19,0.00,,,0.00,LWC V2.00 B2112,2013-04-03 20:42:00,
2013-04-03 16:47:00,60.1,18.9,30.17,West,274,0.0,2.0,20,0.00,,,0.00,LWC V2.00 B2112,2013-04-03 20:47:00,
2013-04-03 16:52:00,59.9,17.6,30.17,SW,223,0.0,1.0,19,0.00,,,0.00,LWC V2.00 B2112,2013-04-03 20:52:00,
2013-04-03 16:57:00,59.9,18.7,30.17,ESE,114,0.0,1.0,20,0.00,,,0.00,LWC V2.00 B2112,2013-04-03 20:57:00,
2013-04-03 17:02:00,59.9,18.7,30.17,East,81,0.0,1.0,20,0.00,,,0.00,LWC V2.00 B2112,2013-04-03 21:02:00,
2013-04-03 17:07:00,59.8,20.9,30.17,SW,236,0.0,1.0,22,0.00,,,0.00,LWC V2.00 B2112,2013-04-03 21:07:00,
2013-04-03 17:12:00,60.1,20.0,30.17,WSW,244,0.0,2.0,21,0.00,,,0.00,LWC V2.00 B2112,2013-04-03 21:12:00,
2013-04-03 17:17:00,60.2,19.0,30.17,East,96,0.0,3.0,20,0.00,,,0.00,LWC V2.00 B2112,2013-04-03 21:17:00,
2013-04-03 17:22:00,60.4,19.2,30.17,SW,232,0.0,0.0,20,0.00,,,0.00,LWC V2.00 B2112,2013-04-03 21:22:00,
2013-04-03 17:27:00,60.2,19.0,30.17,North,351,0.0,1.0,20,0.00,,,0.00,LWC V2.00 B2112,2013-04-03 21:27:00,
2013-04-03 17:32:00,60.2,21.2,30.17,North,351,0.0,0.0,22,0.00,,,0.00,LWC V2.00 B2112,2013-04-03 21:32:00,
2013-04-03 17:37:00,60.1,18.9,30.17,North,351,1.0,1.0,20,0.00,,,0.00,LWC V2.00 B2112,2013-04-03 21:37:00,
2013-04-03 17:42:00,59.9,19.9,30.17,West,267,0.0,0.0,21,0.00,,,0.00,LWC V2.00 B2112,2013-04-03 21:42:00,
2013-04-03 17:47:00,59.8,17.5,30.17,West,271,0.0,2.0,19,0.00,,,0.00,LWC V2.00 B2112,2013-04-03 21:47:00,
2013-04-03 17:52:00,59.5,20.6,30.17,West,259,2.0,2.0,22,0.00,,,0.00,LWC V2.00 B2112,2013-04-03 21:52:00,
2013-04-03 17:57:00,59.3,19.4,30.17,NNE,25,0.0,0.0,21,0.00,,,0.00,LWC V2.00 B2112,2013-04-03 21:57:00,
2013-04-03 18:02:00,59.2,19.3,30.17,NNE,25,0.0,0.0,21,0.00,,,0.00,LWC V2.00 B2112,2013-04-03 22:02:00,
2013-04-03 18:07:00,59.2,19.3,30.18,NNE,25,0.0,0.0,21,0.00,,,0.00,LWC V2.00 B2112,2013-04-03 22:07:00,
2013-04-03 18:12:00,59.0,20.2,30.18,East,79,0.0,0.0,22,0.00,,,0.00,LWC V2.00 B2112,2013-04-03 22:12:00,
2013-04-03 18:17:00,58.9,21.2,30.18,East,79,0.0,0.0,23,0.00,,,0.00,LWC V2.00 B2112,2013-04-03 22:17:00,
2013-04-03 18:22:00,58.4,18.6,30.18,North,351,0.0,0.0,21,0.00,,,0.00,LWC V2.00 B2112,2013-04-03 22:22:00,
2013-04-03 18:27:00,58.3,18.5,30.18,North,355,0.0,0.0,21,0.00,,,0.00,LWC V2.00 B2112,2013-04-03 22:27:00,
2013-04-03 18:32:00,58.0,18.3,30.18,North,351,0.0,0.0,21,0.00,,,0.00,LWC V2.00 B2112,2013-04-03 22:32:00,
2013-04-03 18:37:00,57.8,20.3,30.18,North,351,0.0,0.0,23,0.00,,,0.00,LWC V2.00 B2112,2013-04-03 22:37:00,
2013-04-03 18:42:00,57.5,20.0,30.18,North,351,0.0,0.0,23,0.00,,,0.00,LWC V2.00 B2112,2013-04-03 22:42:00,
2013-04-03 18:47:00,57.3,21.8,30.18,North,355,0.0,0.0,25,0.00,,,0.00,LWC V2.00 B2112,2013-04-03 22:47:00,
2013-04-03 18:52:00,57.3,20.8,30.19,North,355,0.0,0.0,24,0.00,,,0.00,LWC V2.00 B2112,2013-04-03 22:52:00,
2013-04-03 18:57:00,57.2,21.7,30.19,North,351,0.0,0.0,25,0.00,,,0.00,LWC V2.00 B2112,2013-04-03 22:57:00,
2013-04-03 19:02:00,56.9,23.3,30.19,North,351,0.0,0.0,27,0.00,,,0.00,LWC V2.00 B2112,2013-04-03 23:02:00,
2013-04-03 19:07:00,56.7,23.1,30.19,North,351,0.0,0.0,27,0.00,,,0.00,LWC V2.00 B2112,2013-04-03 23:07:00,
2013-04-03 19:12:00,56.6,23.9,30.19,North,351,0.0,0.0,28,0.00,,,0.00,LWC V2.00 B2112,2013-04-03 23:12:00,
2013-04-03 19:17:00,56.3,25.3,30.19,North,351,0.0,0.0,30,0.00,,,0.00,LWC V2.00 B2112,2013-04-03 23:17:00,
2013-04-03 19:22:00,56.0,23.4,30.19,North,351,0.0,0.0,28,0.00,,,0.00,LWC V2.00 B2112,2013-04-03 23:22:00,
2013-04-03 19:27:00,55.7,23.9,30.19,North,355,0.0,0.0,29,0.00,,,0.00,LWC V2.00 B2112,2013-04-03 23:27:00,
2013-04-03 19:32:00,55.3,23.6,30.19,North,355,0.0,0.0,29,0.00,,,0.00,LWC V2.00 B2112,2013-04-03 23:32:00,
2013-04-03 19:37:00,55.0,24.9,30.19,North,355,0.0,0.0,31,0.00,,,0.00,LWC V2.00 B2112,2013-04-03 23:37:00,
2013-04-03 19:42:00,54.5,25.3,30.19,North,351,0.0,0.0,32,0.00,,,0.00,LWC V2.00 B2112,2013-04-03 23:42:00,
2013-04-03 19:47:00,54.1,25.6,30.19,North,355,0.0,0.0,33,0.00,,,0.00,LWC V2.00 B2112,2013-04-03 23:47:00,
2013-04-03 19:52:00,53.8,26.8,30.19,North,355,0.0,0.0,35,0.00,,,0.00,LWC V2.00 B2112,2013-04-03 23:52:00,
2013-04-03 19:57:00,53.3,27.0,30.19,North,355,0.0,0.0,36,0.00,,,0.00,LWC V2.00 B2112,2013-04-03 23:57:00,
2013-04-03 20:02:00,53.1,27.5,30.19,North,355,0.0,0.0,37,0.00,,,0.00,LWC V2.00 B2112,2013-04-04 00:02:00,
2013-04-03 20:07:00,52.6,27.1,30.19,North,355,0.0,0.0,37,0.00,,,0.00,LWC V2.00 B2112,2013-04-04 00:07:00,
2013-04-03 20:12:00,52.2,28.0,30.19,North,351,0.0,0.0,39,0.00,,,0.00,LWC V2.00 B2112,2013-04-04 00:12:00,
2013-04-03 20:17:00,51.7,28.8,30.19,North,351,0.0,0.0,41,0.00,,,0.00,LWC V2.00 B2112,2013-04-04 00:17:00,
2013-04-03 20:22:00,51.3,29.0,30.20,North,355,0.0,0.0,42,0.00,,,0.00,LWC V2.00 B2112,2013-04-04 00:22:00,
2013-04-03 20:27:00,51.0,29.3,30.20,North,351,0.0,0.0,43,0.00,,,0.00,LWC V2.00 B2112,2013-04-04 00:27:00,
2013-04-03 20:32:00,50.7,29.0,30.20,North,355,0.0,0.0,43,0.00,,,0.00,LWC V2.00 B2112,2013-04-04 00:32:00,
2013-04-03 20:37:00,50.4,29.3,30.21,North,355,0.0,0.0,44,0.00,,,0.00,LWC V2.00 B2112,2013-04-04 00:37:00,
2013-04-03 20:42:00,49.9,29.4,30.21,North,355,0.0,0.0,45,0.00,,,0.00,LWC V2.00 B2112,2013-04-04 00:42:00,
2013-04-03 20:47:00,49.6,29.7,30.21,North,355,0.0,0.0,46,0.00,,,0.00,LWC V2.00 B2112,2013-04-04 00:47:00,
2013-04-03 20:52:00,49.2,29.8,30.21,North,351,0.0,0.0,47,0.00,,,0.00,LWC V2.00 B2112,2013-04-04 00:52:00,
2013-04-03 20:57:00,48.9,29.0,30.21,North,355,0.0,0.0,46,0.00,,,0.00,LWC V2.00 B2112,2013-04-04 00:57:00,
2013-04-03 21:02:00,48.8,29.5,30.21,North,355,0.0,0.0,47,0.00,,,0.00,LWC V2.00 B2112,2013-04-04 01:02:00,
2013-04-03 21:07:00,48.5,29.2,30.23,North,351,0.0,0.0,47,0.00,,,0.00,LWC V2.00 B2112,2013-04-04 01:07:00,
2013-04-03 21:12:00,48.2,29.4,30.23,North,355,0.0,0.0,48,0.00,,,0.00,LWC V2.00 B2112,2013-04-04 01:12:00,
2013-04-03 21:17:00,47.9,29.7,30.23,North,355,0.0,0.0,49,0.00,,,0.00,LWC V2.00 B2112,2013-04-04 01:17:00,
2013-04-03 21:22:00,47.6,29.9,30.23,North,355,0.0,0.0,50,0.00,,,0.00,LWC V2.00 B2112,2013-04-04 01:22:00,
2013-04-03 21:27:00,47.4,29.7,30.23,North,355,0.0,0.0,50,0.00,,,0.00,LWC V2.00 B2112,2013-04-04 01:27:00,
2013-04-03 21:32:00,47.1,29.9,30.23,North,351,0.0,0.0,51,0.00,,,0.00,LWC V2.00 B2112,2013-04-04 01:32:00,
2013-04-03 21:37:00,46.8,30.6,30.23,North,355,0.0,0.0,53,0.00,,,0.00,LWC V2.00 B2112,2013-04-04 01:37:00,
2013-04-03 21:42:00,46.5,29.8,30.23,North,355,0.0,0.0,52,0.00,,,0.00,LWC V2.00 B2112,2013-04-04 01:42:00,
2013-04-03 21:47:00,46.2,29.1,30.23,North,355,0.0,0.0,51,0.00,,,0.00,LWC V2.00 B2112,2013-04-04 01:47:00,
2013-04-03 21:52:00,46.1,29.9,30.23,North,355,0.0,0.0,53,0.00,,,0.00,LWC V2.00 B2112,2013-04-04 01:52:00,
2013-04-03 21:57:00,46.0,30.3,30.23,North,355,0.0,0.0,54,0.00,,,0.00,LWC V2.00 B2112,2013-04-04 01:57:00,
2013-04-03 22:02:00,45.8,30.6,30.23,North,355,0.0,0.0,55,0.00,,,0.00,LWC V2.00 B2112,2013-04-04 02:02:00,
2013-04-03 22:07:00,45.7,29.6,30.24,North,355,0.0,0.0,53,0.00,,,0.00,LWC V2.00 B2112,2013-04-04 02:07:00,
2013-04-03 22:12:00,45.4,30.2,30.24,North,355,0.0,0.0,55,0.00,,,0.00,LWC V2.00 B2112,2013-04-04 02:12:00,
2013-04-03 22:17:00,45.4,30.2,30.24,North,351,0.0,0.0,55,0.00,,,0.00,LWC V2.00 B2112,2013-04-04 02:17:00,
2013-04-03 22:22:00,45.2,30.4,30.25,North,355,0.0,0.0,56,0.00,,,0.00,LWC V2.00 B2112,2013-04-04 02:22:00,
2013-04-03 22:27:00,45.1,30.4,30.25,North,355,0.0,0.0,56,0.00,,,0.00,LWC V2.00 B2112,2013-04-04 02:27:00,
2013-04-03 22:32:00,44.9,30.6,30.25,North,355,0.0,0.0,57,0.00,,,0.00,LWC V2.00 B2112,2013-04-04 02:32:00,
2013-04-03 22:37:00,44.8,30.5,30.25,North,355,0.0,0.0,57,0.00,,,0.00,LWC V2.00 B2112,2013-04-04 02:37:00,
2013-04-03 22:42:00,44.6,30.3,30.25,North,355,0.0,0.0,57,0.00,,,0.00,LWC V2.00 B2112,2013-04-04 02:42:00,
2013-04-03 22:47:00,44.6,30.7,30.25,North,355,0.0,0.0,58,0.00,,,0.00,LWC V2.00 B2112,2013-04-04 02:47:00,
2013-04-03 22:52:00,44.5,30.7,30.25,North,355,0.0,0.0,58,0.00,,,0.00,LWC V2.00 B2112,2013-04-04 02:52:00,
2013-04-03 22:57:00,44.5,30.2,30.25,North,355,0.0,0.0,57,0.00,,,0.00,LWC V2.00 B2112,2013-04-04 02:57:00,
2013-04-03 23:02:00,44.3,30.0,30.25,North,355,0.0,0.0,57,0.00,,,0.00,LWC V2.00 B2112,2013-04-04 03:02:00,
2013-04-03 23:07:00,44.3,30.5,30.25,North,355,0.0,0.0,58,0.00,,,0.00,LWC V2.00 B2112,2013-04-04 03:07:00,
2013-04-03 23:12:00,44.2,30.8,30.25,North,355,0.0,0.0,59,0.00,,,0.00,LWC V2.00 B2112,2013-04-04 03:12:00,
2013-04-03 23:17:00,44.1,29.9,30.25,North,355,0.0,0.0,57,0.00,,,0.00,LWC V2.00 B2112,2013-04-04 03:17:00,
2013-04-03 23:22:00,44.1,30.3,30.25,North,355,0.0,0.0,58,0.00,,,0.00,LWC V2.00 B2112,2013-04-04 03:22:00,
2013-04-03 23:27:00,43.9,30.9,30.25,North,355,0.0,0.0,60,0.00,,,0.00,LWC V2.00 B2112,2013-04-04 03:27:00,
2013-04-03 23:32:00,43.8,30.4,30.25,North,355,0.0,0.0,59,0.00,,,0.00,LWC V2.00 B2112,2013-04-04 03:32:00,
2013-04-03 23:37:00,43.6,29.8,30.25,North,355,0.0,0.0,58,0.00,,,0.00,LWC V2.00 B2112,2013-04-04 03:37:00,
2013-04-03 23:42:00,43.5,30.5,30.25,North,355,0.0,0.0,60,0.00,,,0.00,LWC V2.00 B2112,2013-04-04 03:42:00,
2013-04-03 23:47:00,43.5,30.5,30.25,North,355,0.0,0.0,60,0.00,,,0.00,LWC V2.00 B2112,2013-04-04 03:47:00,
2013-04-03 23:52:00,43.3,30.4,30.25,North,355,0.0,0.0,60,0.00,,,0.00,LWC V2.00 B2112,2013-04-04 03:52:00,
2013-04-03 23:57:00,43.3,31.2,30.25,North,355,0.0,0.0,62,0.00,,,0.00,LWC V2.00 B2112,2013-04-04 03:57:00,